DW5174 Weather Reports


Display with metric or nautical units.
time (UTC)temp
F
wind
direction
speed
MPH
gust
MPH
rain 1hr
in
rain 24hr
in
rain mn
in
humidity
%
barometer
mb
20260508011704 43 111 0.0 0.0 0.00 0.00 0.00 85 1016.0
20260508010704 44 111 0.0 0.0 0.00 0.00 0.00 85 1016.1
20260508010205 44 111 0.0 0.0 0.00 0.00 0.00 85 1016.1
20260508005704 44 111 0.0 0.0 0.00 0.00 0.00 85 1016.1
20260508005205 45 111 0.0 0.0 0.00 0.00 0.00 85 1016.0
20260508004704 45 111 0.0 0.0 0.00 0.00 0.00 84 1016.1
20260508004205 45 111 0.0 0.0 0.00 0.00 0.00 84 1016.0
20260508003704 45 111 0.0 0.0 0.00 0.00 0.00 83 1016.0
20260508003204 46 111 0.0 0.0 0.00 0.00 0.00 83 1016.0
20260508002704 46 111 0.0 0.0 0.00 0.00 0.00 83 1016.0
20260508002204 46 111 0.0 0.0 0.00 0.00 0.00 83 1015.9
20260508001705 47 111 0.0 0.0 0.00 0.00 0.00 83 1015.9
20260508001204 47 111 0.0 0.0 0.00 0.00 0.00 83 1015.9
20260508000705 47 111 0.0 0.0 0.00 0.00 0.00 82 1015.9
20260508000205 47 111 0.0 4.0 0.00 0.00 0.00 82 1015.9
20260507235704 47 111 0.0 4.0 0.00 0.00 0.00 82 1015.9
20260507235205 48 111 0.0 4.0 0.00 0.00 0.00 82 1015.9
20260507234704 48 111 0.0 4.0 0.00 0.00 0.00 82 1015.9
20260507234205 48 111 2.0 3.0 0.00 0.00 0.00 82 1015.9
20260507233205 48 132 0.0 3.0 0.00 0.00 0.00 81 1015.8
20260507232705 48 132 1.0 4.0 0.00 0.00 0.00 81 1015.8
20260507232205 48 146 0.0 5.0 0.00 0.00 0.00 81 1015.8
20260507231705 48 196 0.0 5.0 0.00 0.00 0.00 79 1015.7
20260507231205 48 196 0.0 5.0 0.00 0.00 0.00 79 1015.8
20260507230705 48 196 1.0 7.0 0.00 0.00 0.00 79 1015.8
20260507230227 48 219 0.0 7.0 0.00 0.00 0.00 79 1015.8
20260507225705 49 129 0.0 7.0 0.00 0.00 0.00 79 1015.7
20260507225205 49 184 3.0 5.0 0.00 0.00 0.00 79 1015.7
20260507224705 49 213 0.0 5.0 0.00 0.00 0.00 78 1015.7
20260507224205 49 188 0.0 5.0 0.00 0.00 0.00 78 1015.6
20260507223704 49 104 0.0 4.0 0.00 0.00 0.00 78 1015.5
20260507222205 49 154 0.0 7.0 0.00 0.00 0.00 77 1015.4
20260507221205 49 163 3.0 6.0 0.00 0.00 0.00 77 1015.4
20260507220705 49 213 4.0 3.0 0.00 0.00 0.00 77 1015.4
20260507220205 49 108 1.0 0.0 0.00 0.00 0.00 77 1015.4
20260507215704 49 61 0.0 0.0 0.00 0.00 0.00 77 1015.4
20260507215204 49 61 0.0 3.0 0.00 0.00 0.00 76 1015.4
20260507214205 49 61 0.0 7.0 0.00 0.00 0.00 76 1015.4
20260507213205 49 195 0.0 7.0 0.00 0.00 0.00 75 1015.2
20260507212704 50 195 1.0 7.0 0.00 0.00 0.00 75 1015.2
20260507211704 50 208 0.0 7.0 0.00 0.00 0.00 74 1015.1
20260507210705 50 188 2.0 6.0 0.00 0.00 0.00 73 1015.1
20260507210205 50 130 1.0 6.0 0.00 0.00 0.00 73 1015.0
20260507205706 51 227 0.0 6.0 0.00 0.00 0.00 72 1014.9
20260507205204 51 192 0.0 7.0 0.00 0.00 0.00 72 1014.8
20260507204705 51 180 4.0 9.0 0.00 0.00 0.00 71 1014.7
20260507204205 51 220 3.0 9.0 0.00 0.00 0.00 71 1014.6
20260507203704 51 194 1.0 9.0 0.00 0.00 0.00 71 1014.5
20260507203205 52 188 4.0 10.0 0.00 0.00 0.00 70 1014.4
20260507202705 52 262 4.0 10.0 0.00 0.00 0.00 70 1014.4
20260507200705 53 243 6.0 8.0 0.00 0.00 0.00 69 1014.1
20260507200204 53 241 4.0 8.0 0.00 0.00 0.00 69 1014.0
20260507195704 53 258 4.0 9.0 0.00 0.00 0.00 69 1014.0
20260507195205 53 210 5.0 10.0 0.00 0.00 0.00 69 1013.8
20260507194704 53 250 4.0 10.0 0.00 0.00 0.00 68 1013.8
20260507194205 53 243 5.0 10.0 0.00 0.00 0.00 68 1013.8
20260507193704 53 209 3.0 10.0 0.00 0.00 0.00 68 1013.8
20260507192705 53 229 5.0 10.0 0.00 0.00 0.00 67 1013.6
20260507192205 54 209 5.0 11.0 0.00 0.00 0.00 67 1013.6
20260507191705 54 257 6.0 11.0 0.00 0.00 0.00 67 1013.6
20260507191205 54 137 4.0 11.0 0.00 0.00 0.00 67 1013.5
20260507185205 54 205 5.0 10.0 0.00 0.00 0.00 67 1013.4
20260507184705 54 253 6.0 10.0 0.00 0.00 0.00 67 1013.3
20260507184204 54 139 3.0 11.0 0.00 0.00 0.00 66 1013.3
20260507183204 55 212 7.0 13.0 0.00 0.00 0.00 66 1013.2
20260507182704 55 198 6.0 13.0 0.00 0.00 0.00 64 1013.2
20260507182206 55 202 8.0 13.0 0.00 0.00 0.00 64 1013.2
20260507181704 55 229 9.0 13.0 0.00 0.00 0.00 64 1013.1
20260507181204 55 225 8.0 12.0 0.00 0.00 0.00 64 1013.1
20260507180704 55 251 7.0 12.0 0.00 0.00 0.00 64 1013.0
20260507180204 55 260 5.0 14.0 0.00 0.00 0.00 64 1012.9
20260507175704 55 195 2.0 14.0 0.00 0.00 0.00 64 1012.9
20260507175204 55 239 7.0 14.0 0.00 0.00 0.00 63 1012.8
20260507174705 56 205 6.0 12.0 0.00 0.00 0.00 63 1012.8
20260507174205 56 225 6.0 12.0 0.00 0.00 0.00 63 1012.8
20260507173204 56 225 6.0 15.0 0.00 0.00 0.00 62 1012.7
20260507172705 56 192 4.0 15.0 0.00 0.00 0.00 61 1012.8
20260507172204 56 274 5.0 13.0 0.00 0.00 0.00 61 1012.8
20260507171705 56 236 9.0 14.0 0.00 0.00 0.00 60 1012.7
20260507171204 56 220 9.0 14.0 0.00 0.00 0.00 60 1012.6
20260507170704 56 246 8.0 16.0 0.00 0.00 0.00 61 1012.6
20260507170204 56 285 7.0 16.0 0.00 0.00 0.00 60 1012.6
20260507165705 56 257 10.0 16.0 0.00 0.00 0.00 60 1012.5
20260507165205 56 243 10.0 16.0 0.00 0.00 0.00 60 1012.6
20260507164205 57 234 9.0 17.0 0.00 0.00 0.00 60 1012.5
20260507163704 57 172 11.0 17.0 0.00 0.00 0.00 60 1012.4
20260507163204 57 237 9.0 18.0 0.00 0.00 0.00 60 1012.3
20260507162705 57 233 5.0 19.0 0.00 0.00 0.00 60 1012.3
20260507161704 57 239 8.0 19.0 0.00 0.00 0.00 59 1012.3
20260507160704 58 215 11.0 13.0 0.00 0.00 0.00 58 1012.2
20260507160204 58 240 6.0 13.0 0.00 0.00 0.00 58 1012.0
20260507155205 58 217 6.0 13.0 0.00 0.00 0.00 57 1011.9
20260507154704 58 261 5.0 12.0 0.00 0.00 0.00 57 1011.7
20260507154205 58 170 9.0 11.0 0.00 0.00 0.00 57 1011.7
20260507153705 59 255 5.0 11.0 0.00 0.00 0.00 56 1011.7
20260507153204 59 237 5.0 11.0 0.00 0.00 0.00 57 1011.7
20260507152704 59 144 4.0 13.0 0.00 0.00 0.00 58 1011.7
20260507152204 59 262 5.0 13.0 0.00 0.00 0.00 58 1011.7
20260507151704 59 195 7.0 15.0 0.00 0.00 0.00 59 1011.7
20260507151204 59 180 3.0 15.0 0.00 0.00 0.00 58 1011.7
20260507150705 59 178 8.0 15.0 0.00 0.00 0.00 58 1011.7
20260507150205 59 167 6.0 12.0 0.00 0.00 0.00 57 1011.8
20260507145704 60 191 5.0 11.0 0.00 0.00 0.00 58 1011.8
20260507145205 60 247 6.0 11.0 0.00 0.00 0.00 58 1011.8
20260507144705 59 226 5.0 11.0 0.00 0.00 0.00 58 1011.8
20260507144205 59 178 4.0 13.0 0.00 0.00 0.00 58 1011.8
20260507143205 59 142 4.0 13.0 0.00 0.00 0.00 59 1011.9
20260507142705 58 251 3.0 13.0 0.00 0.00 0.00 57 1012.0
20260507142205 58 111 7.0 13.0 0.00 0.00 0.00 56 1012.0
20260507141704 59 215 6.0 10.0 0.00 0.00 0.00 57 1012.1
20260507141204 59 209 6.0 10.0 0.00 0.00 0.00 56 1012.1
20260507140704 59 230 5.0 10.0 0.00 0.00 0.00 56 1012.1
20260507140205 59 275 5.0 10.0 0.00 0.00 0.00 57 1012.1
20260507135704 58 282 4.0 11.0 0.00 0.00 0.00 58 1012.2
20260507135205 58 205 7.0 11.0 0.00 0.00 0.00 58 1012.1
20260507134705 58 208 2.0 11.0 0.00 0.00 0.00 59 1012.2
20260507134205 58 250 4.0 15.0 0.00 0.00 0.00 59 1012.2
20260507133204 59 220 2.0 15.0 0.00 0.00 0.00 59 1012.3
20260507132705 59 219 4.0 15.0 0.00 0.00 0.00 60 1012.3
20260507131705 58 188 5.0 15.0 0.00 0.00 0.00 62 1012.5
20260507130704 57 233 7.0 15.0 0.00 0.00 0.00 63 1012.5
20260507130204 57 172 5.0 14.0 0.00 0.00 0.00 63 1012.5
20260507125704 57 243 9.0 12.0 0.00 0.00 0.00 63 1012.5
20260507125204 57 261 6.0 12.0 0.00 0.00 0.00 62 1012.5
20260507124704 57 240 6.0 14.0 0.00 0.00 0.00 62 1012.5
20260507123705 58 196 6.0 14.0 0.00 0.00 0.00 61 1012.5
20260507123204 58 260 4.0 14.0 0.00 0.00 0.00 60 1012.5
20260507122205 59 219 7.0 14.0 0.00 0.00 0.00 62 1012.7
20260507121732 58 144 6.0 13.0 0.00 0.00 0.00 62 1012.8
20260507120705 58 277 4.0 14.0 0.00 0.00 0.00 62 1012.8
20260507120204 58 241 8.0 14.0 0.00 0.00 0.00 63 1013.0
20260507115704 58 146 4.0 15.0 0.00 0.00 0.00 64 1013.0
20260507115205 58 264 6.0 15.0 0.00 0.00 0.00 66 1013.1
20260507114705 58 217 4.0 15.0 0.00 0.00 0.00 64 1013.2
20260507114205 58 137 5.0 14.0 0.00 0.00 0.00 67 1013.3
20260507113704 57 258 10.0 12.0 0.00 0.00 0.00 68 1013.3
20260507113204 56 157 6.0 13.0 0.00 0.00 0.00 69 1013.3
20260507112705 56 178 4.0 13.0 0.00 0.00 0.00 69 1013.3
20260507112205 56 163 5.0 13.0 0.00 0.00 0.00 69 1013.3
20260507111704 56 239 4.0 13.0 0.00 0.00 0.00 69 1013.4
20260507110704 56 227 7.0 12.0 0.00 0.00 0.00 72 1013.4
20260507110227 56 201 5.0 9.0 0.00 0.00 0.00 72 1013.5
20260507105704 56 215 5.0 9.0 0.00 0.00 0.00 71 1013.5
20260507105206 56 132 4.0 10.0 0.00 0.00 0.00 71 1013.6
20260507103704 56 168 3.0 12.0 0.00 0.00 0.00 72 1013.8
20260507103204 56 215 6.0 13.0 0.00 0.00 0.00 72 1013.9
20260507102705 56 133 6.0 15.0 0.00 0.00 0.00 71 1013.9
20260507102205 56 150 5.0 15.0 0.00 0.00 0.00 72 1014.0
20260507101705 55 164 8.0 15.0 0.00 0.00 0.00 72 1014.0
20260507101204 55 180 7.0 12.0 0.00 0.00 0.00 72 1014.2
20260507100704 55 203 8.0 13.0 0.00 0.00 0.00 72 1014.2
20260507095705 54 130 4.0 14.0 0.00 0.00 0.00 72 1014.4
20260507095205 54 168 6.0 14.0 0.00 0.00 0.00 72 1014.5
20260507094705 54 175 2.0 14.0 0.00 0.00 0.00 74 1014.5
20260507094204 54 163 5.0 13.0 0.00 0.00 0.00 76 1014.5
20260507093705 53 171 5.0 10.0 0.00 0.00 0.00 77 1014.5
20260507093204 53 151 5.0 10.0 0.00 0.00 0.00 77 1014.6
20260507092705 53 177 5.0 11.0 0.00 0.00 0.00 77 1014.6
20260507092205 53 225 5.0 11.0 0.00 0.00 0.00 77 1014.6
20260507091705 53 225 2.0 11.0 0.00 0.00 0.00 77 1014.6
20260507091204 53 246 5.0 11.0 0.00 0.00 0.00 77 1014.6
20260507085705 52 226 2.0 10.0 0.00 0.00 0.00 75 1014.8
20260507085205 52 184 4.0 11.0 0.00 0.00 0.00 75 1014.7
20260507084704 52 248 4.0 11.0 0.00 0.00 0.00 75 1014.7
20260507083705 52 178 5.0 14.0 0.00 0.00 0.00 73 1014.8
20260507083205 52 233 7.0 14.0 0.00 0.00 0.00 73 1014.9
20260507082705 52 202 7.0 13.0 0.00 0.00 0.00 73 1014.9
20260507082204 52 111 6.0 13.0 0.00 0.00 0.00 74 1014.9
20260507081704 52 160 9.0 14.0 0.00 0.00 0.00 75 1014.8
20260507081204 52 163 5.0 14.0 0.00 0.00 0.00 76 1014.8
20260507080705 52 222 5.0 14.0 0.00 0.00 0.00 77 1014.8
20260507080204 52 178 7.0 12.0 0.00 0.00 0.00 77 1014.8
20260507075205 52 168 6.0 11.0 0.00 0.00 0.00 78 1014.9
20260507074705 52 112 6.0 11.0 0.00 0.00 0.00 78 1014.9
20260507074205 51 167 5.0 9.0 0.00 0.00 0.00 78 1014.9
20260507073704 51 165 1.0 9.0 0.00 0.00 0.00 78 1014.9
20260507073204 51 170 5.0 10.0 0.00 0.00 0.00 79 1014.9
20260507072705 51 174 4.0 10.0 0.00 0.00 0.00 79 1014.9
20260507072205 51 160 5.0 10.0 0.00 0.00 0.00 79 1014.9
20260507071704 51 88 2.0 10.0 0.00 0.00 0.00 81 1014.9
20260507071204 51 66 5.0 8.0 0.00 0.00 0.00 83 1015.0
20260507070204 50 135 3.0 8.0 0.00 0.00 0.00 85 1014.9
20260507065705 50 112 2.0 6.0 0.00 0.00 0.00 86 1015.0
20260507065205 49 164 3.0 6.0 0.00 0.00 0.00 86 1015.0
20260507064704 49 157 1.0 6.0 0.00 0.00 0.00 87 1015.0
20260507064204 49 140 2.0 3.0 0.00 0.00 0.00 89 1015.1
20260507063705 48 87 0.0 3.0 0.00 0.00 0.00 89 1015.1
20260507063204 48 87 0.0 3.0 0.00 0.00 0.00 89 1015.1
20260507062704 47 87 0.0 4.0 0.00 0.00 0.00 89 1015.1
20260507062205 47 95 0.0 4.0 0.00 0.00 0.00 90 1015.1
20260507061704 47 95 0.0 4.0 0.00 0.00 0.00 90 1015.1
20260507061205 47 95 3.0 4.0 0.00 0.00 0.00 90 1015.1
20260507060705 47 101 0.0 3.0 0.00 0.00 0.00 90 1015.1
20260507060205 47 135 0.0 2.0 0.00 0.00 0.00 90 1015.1
20260507055205 46 125 0.0 0.0 0.00 0.00 0.00 92 1015.0
20260507054722 46 125 0.0 3.0 0.00 0.00 0.00 90 1015.0
20260507054204 46 125 0.0 3.0 0.00 0.00 0.00 90 1015.0
20260507053704 46 125 0.0 3.0 0.00 0.00 0.00 90 1015.1
20260507053205 46 125 0.0 0.0 0.00 0.00 0.00 90 1015.1
20260507052705 46 125 0.0 3.0 0.00 0.00 0.00 90 1015.0
20260507052205 46 125 0.0 3.0 0.00 0.00 0.00 90 1015.0
20260507051705 46 125 0.0 3.0 0.00 0.00 0.00 90 1015.1
20260507051205 46 125 0.0 3.0 0.00 0.00 0.00 90 1015.0
20260507050705 46 123 0.0 3.0 0.00 0.00 0.00 89 1015.0
20260507050205 46 123 0.0 3.0 0.00 0.00 0.00 89 1015.0
20260507045705 46 123 0.0 3.0 0.00 0.00 0.00 89 1015.0
20260507045205 46 123 2.0 3.0 0.00 0.00 0.00 89 1015.0
20260507044704 46 161 0.0 5.0 0.00 0.00 0.00 89 1015.0
20260507044204 46 161 0.0 5.0 0.00 0.00 0.00 89 1015.0
20260507043704 46 161 0.0 5.0 0.00 0.00 0.00 89 1014.9
20260507043204 46 90 0.0 4.0 0.00 0.00 0.00 89 1014.9
20260507042704 46 52 0.0 4.0 0.00 0.00 0.00 89 1015.0
20260507041704 46 52 0.0 4.0 0.00 0.00 0.00 89 1014.9
20260507040705 46 87 2.0 0.0 0.00 0.00 0.00 89 1014.9
20260507040205 46 126 0.0 0.0 0.00 0.00 0.00 89 1015.0
20260507035705 46 126 0.0 0.0 0.00 0.00 0.00 89 1014.9
20260507035206 46 126 0.0 0.0 0.00 0.00 0.00 87 1015.0
20260507034704 46 126 0.0 0.0 0.00 0.00 0.00 87 1015.0
20260507034204 46 126 0.0 0.0 0.00 0.00 0.00 87 1015.0
20260507033704 46 126 0.0 0.0 0.00 0.00 0.00 87 1015.0
20260507033205 47 126 0.0 0.0 0.00 0.00 0.00 87 1015.0
20260507032704 47 126 0.0 0.0 0.00 0.00 0.00 87 1015.0
20260507031704 47 126 0.0 0.0 0.00 0.00 0.00 87 1015.1
20260507031204 47 126 0.0 0.0 0.00 0.00 0.00 87 1015.1
20260507030705 47 126 0.0 0.0 0.00 0.00 0.00 87 1015.0
20260507030204 47 126 0.0 0.0 0.00 0.00 0.00 87 1015.1
20260507025704 47 126 0.0 0.0 0.00 0.00 0.00 86 1015.0
20260507025205 47 126 0.0 0.0 0.00 0.00 0.00 86 1015.0
20260507024704 47 126 0.0 0.0 0.00 0.00 0.00 86 1015.1
20260507024205 47 126 0.0 0.0 0.00 0.00 0.00 86 1015.1
20260507023705 47 126 0.0 0.0 0.00 0.00 0.00 86 1015.1
20260507023204 47 126 0.0 0.0 0.00 0.00 0.00 86 1015.1
20260507022204 47 126 0.0 0.0 0.00 0.00 0.00 86 1015.1
20260507021704 47 126 0.0 0.0 0.00 0.00 0.00 86 1015.0
20260507021204 47 126 0.0 0.0 0.00 0.00 0.00 86 1015.1
20260507020705 47 126 0.0 0.0 0.00 0.00 0.00 85 1015.1
20260507020204 47 126 0.0 0.0 0.00 0.00 0.00 85 1015.1
20260507015704 47 126 0.0 0.0 0.00 0.00 0.00 85 1015.1
20260507015205 47 126 0.0 0.0 0.00 0.00 0.00 85 1015.0
20260507014705 47 126 0.0 0.0 0.00 0.00 0.00 85 1015.1
20260507014205 47 126 0.0 0.0 0.00 0.00 0.00 85 1015.1
20260507013705 48 126 0.0 0.0 0.00 0.00 0.00 85 1015.1
20260507013205 48 126 0.0 0.0 0.00 0.00 0.00 84 1015.1
20260507012720 48 126 0.0 0.0 0.00 0.00 0.00 84 1015.1
20260507012205 48 126 0.0 0.0 0.00 0.00 0.00 83 1015.1